Year,Month,Day,Hour,Minute,Value (Times are PST for temperature in C)
2017,05,26,00,00,13.60
2017,05,26,00,01,13.50
2017,05,26,00,02,13.50
2017,05,26,00,03,13.50
2017,05,26,00,04,13.40
2017,05,26,00,05,13.40
2017,05,26,00,06,13.40
2017,05,26,00,07,13.40
2017,05,26,00,08,13.40
2017,05,26,00,09,13.40
2017,05,26,00,10,13.40
2017,05,26,00,11,13.50
2017,05,26,00,12,13.50
2017,05,26,00,13,13.60
2017,05,26,00,14,13.70
2017,05,26,00,15,13.70
2017,05,26,00,16,13.80
2017,05,26,00,17,13.90
2017,05,26,00,18,14.00
2017,05,26,00,19,14.00
2017,05,26,00,20,14.10
2017,05,26,00,21,14.20
2017,05,26,00,22,14.20
2017,05,26,00,23,14.30
2017,05,26,00,24,14.30
2017,05,26,00,25,14.30
2017,05,26,00,26,14.40
2017,05,26,00,27,14.40
2017,05,26,00,28,14.50
2017,05,26,00,29,14.60
2017,05,26,00,30,14.60
2017,05,26,00,31,14.60
2017,05,26,00,32,14.60
2017,05,26,00,33,14.60
2017,05,26,00,34,14.60
2017,05,26,00,35,14.60
2017,05,26,00,36,14.70
2017,05,26,00,37,14.60
2017,05,26,00,38,14.70
2017,05,26,00,39,14.70
2017,05,26,00,40,14.70
2017,05,26,00,41,14.70
2017,05,26,00,42,14.70
2017,05,26,00,43,14.70
2017,05,26,00,44,14.70
2017,05,26,00,45,14.70
2017,05,26,00,46,14.70
2017,05,26,00,47,14.70
2017,05,26,00,48,14.70
2017,05,26,00,49,14.70
2017,05,26,00,50,14.70
2017,05,26,00,51,14.70
2017,05,26,00,52,14.60
2017,05,26,00,53,14.50
2017,05,26,00,54,14.50
2017,05,26,00,55,14.40
2017,05,26,00,56,14.40
2017,05,26,00,57,14.30
2017,05,26,00,58,14.30
2017,05,26,00,59,14.30
2017,05,26,01,00,14.20
2017,05,26,01,01,14.20
2017,05,26,01,02,14.10
2017,05,26,01,03,14.10
2017,05,26,01,04,14.10
2017,05,26,01,05,14.10
2017,05,26,01,06,14.10
2017,05,26,01,07,14.10
2017,05,26,01,08,14.10
2017,05,26,01,09,14.10
2017,05,26,01,10,14.10
2017,05,26,01,11,14.00
2017,05,26,01,12,14.00
2017,05,26,01,13,14.00
2017,05,26,01,14,14.00
2017,05,26,01,15,13.90
2017,05,26,01,16,13.90
2017,05,26,01,17,13.90
2017,05,26,01,18,13.90
2017,05,26,01,19,13.90
2017,05,26,01,20,14.00
2017,05,26,01,21,14.00
2017,05,26,01,22,14.00
2017,05,26,01,23,14.00
2017,05,26,01,24,14.00
2017,05,26,01,25,13.90
2017,05,26,01,26,13.90
2017,05,26,01,27,13.90
2017,05,26,01,28,13.90
2017,05,26,01,29,13.90
2017,05,26,01,30,13.80
2017,05,26,01,31,13.80
2017,05,26,01,32,13.80
2017,05,26,01,33,13.80
2017,05,26,01,34,13.70
2017,05,26,01,35,13.70
2017,05,26,01,36,13.70
2017,05,26,01,37,13.70
2017,05,26,01,38,13.60
2017,05,26,01,39,13.60
2017,05,26,01,40,13.60
2017,05,26,01,41,13.60
2017,05,26,01,42,13.60
2017,05,26,01,43,13.60
2017,05,26,01,44,13.60
2017,05,26,01,45,13.50
2017,05,26,01,46,13.50
2017,05,26,01,47,13.50
2017,05,26,01,48,13.50
2017,05,26,01,49,13.50
2017,05,26,01,50,13.50
2017,05,26,01,51,13.50
2017,05,26,01,52,13.50
2017,05,26,01,53,13.50
2017,05,26,01,54,13.50
2017,05,26,01,55,13.50
2017,05,26,01,56,13.50
2017,05,26,01,57,13.40
2017,05,26,01,58,13.40
2017,05,26,01,59,13.40
2017,05,26,02,00,13.40
2017,05,26,02,01,13.30
2017,05,26,02,02,13.30
2017,05,26,02,03,13.30
2017,05,26,02,04,13.30
2017,05,26,02,05,13.20
2017,05,26,02,06,13.20
2017,05,26,02,07,13.20
2017,05,26,02,08,13.10
2017,05,26,02,09,13.10
2017,05,26,02,10,13.10
2017,05,26,02,11,13.10
2017,05,26,02,12,13.10
2017,05,26,02,13,13.00
2017,05,26,02,14,13.00
2017,05,26,02,15,13.00
2017,05,26,02,16,13.00
2017,05,26,02,17,13.00
2017,05,26,02,18,13.00
2017,05,26,02,19,13.00
2017,05,26,02,20,13.00
2017,05,26,02,21,13.00
2017,05,26,02,22,13.00
2017,05,26,02,23,13.00
2017,05,26,02,24,13.00
2017,05,26,02,25,13.00
2017,05,26,02,26,13.00
2017,05,26,02,27,13.00
2017,05,26,02,28,13.00
2017,05,26,02,29,13.00
2017,05,26,02,30,13.00
2017,05,26,02,31,13.00
2017,05,26,02,32,13.10
2017,05,26,02,33,13.00
2017,05,26,02,34,13.00
2017,05,26,02,35,13.00
2017,05,26,02,36,13.00
2017,05,26,02,37,13.00
2017,05,26,02,38,12.90
2017,05,26,02,39,12.90
2017,05,26,02,40,12.90
2017,05,26,02,41,12.90
2017,05,26,02,42,12.90
2017,05,26,02,43,12.90
2017,05,26,02,44,12.90
2017,05,26,02,45,12.80
2017,05,26,02,46,12.80
2017,05,26,02,47,12.80
2017,05,26,02,48,12.80
2017,05,26,02,49,12.80
2017,05,26,02,50,12.70
2017,05,26,02,51,12.70
2017,05,26,02,52,12.70
2017,05,26,02,53,12.60
2017,05,26,02,54,12.60
2017,05,26,02,55,12.50
2017,05,26,02,56,12.50
2017,05,26,02,57,12.50
2017,05,26,02,58,12.50
2017,05,26,02,59,12.50
2017,05,26,03,00,12.50
2017,05,26,03,01,12.50
2017,05,26,03,02,12.50
2017,05,26,03,03,12.50
2017,05,26,03,04,12.40
2017,05,26,03,05,12.40
2017,05,26,03,06,12.40
2017,05,26,03,07,12.40
2017,05,26,03,08,12.40
2017,05,26,03,09,12.30
2017,05,26,03,10,12.30
2017,05,26,03,11,12.30
2017,05,26,03,12,12.30
2017,05,26,03,13,12.30
2017,05,26,03,14,12.30
2017,05,26,03,15,12.30
2017,05,26,03,16,12.20
2017,05,26,03,17,12.20
2017,05,26,03,18,12.20
2017,05,26,03,19,12.20
2017,05,26,03,20,12.20
2017,05,26,03,21,12.20
2017,05,26,03,22,12.20
2017,05,26,03,23,12.20
2017,05,26,03,24,12.20
2017,05,26,03,25,12.10
2017,05,26,03,26,12.10
2017,05,26,03,27,12.10
2017,05,26,03,28,12.10
2017,05,26,03,29,12.10
2017,05,26,03,30,12.00
2017,05,26,03,31,12.00
2017,05,26,03,32,12.00
2017,05,26,03,33,12.00
2017,05,26,03,34,12.00
2017,05,26,03,35,11.90
2017,05,26,03,36,11.90
2017,05,26,03,37,11.80
2017,05,26,03,38,11.80
2017,05,26,03,39,11.70
2017,05,26,03,40,11.70
2017,05,26,03,41,11.60
2017,05,26,03,42,11.50
2017,05,26,03,43,11.50
2017,05,26,03,44,11.40
2017,05,26,03,45,11.30
2017,05,26,03,46,11.30
2017,05,26,03,47,11.20
2017,05,26,03,48,11.10
2017,05,26,03,49,11.10
2017,05,26,03,50,11.00
2017,05,26,03,51,10.90
2017,05,26,03,52,10.90
2017,05,26,03,53,10.80
2017,05,26,03,54,10.80
2017,05,26,03,55,10.80
2017,05,26,03,56,10.70
2017,05,26,03,57,10.70
2017,05,26,03,58,10.70
2017,05,26,03,59,10.60
2017,05,26,04,00,10.60
2017,05,26,04,01,10.60
2017,05,26,04,02,10.60
2017,05,26,04,03,10.60
2017,05,26,04,04,10.50
2017,05,26,04,05,10.50
2017,05,26,04,06,10.50
2017,05,26,04,07,10.50
2017,05,26,04,08,10.40
2017,05,26,04,09,10.40
2017,05,26,04,10,10.40
2017,05,26,04,11,10.40
2017,05,26,04,12,10.40
2017,05,26,04,13,10.30
2017,05,26,04,14,10.30
2017,05,26,04,15,10.30
2017,05,26,04,16,10.30
2017,05,26,04,17,10.30
2017,05,26,04,18,10.30
2017,05,26,04,19,10.30
2017,05,26,04,20,10.20
2017,05,26,04,21,10.20
2017,05,26,04,22,10.20
2017,05,26,04,23,10.20
2017,05,26,04,24,10.20
2017,05,26,04,25,10.10
2017,05,26,04,26,10.10
2017,05,26,04,27,10.10
2017,05,26,04,28,10.10
2017,05,26,04,29,10.00
2017,05,26,04,30,10.00
2017,05,26,04,31,10.00
2017,05,26,04,32,10.00
2017,05,26,04,33,10.00
2017,05,26,04,34,9.90
2017,05,26,04,35,9.90
2017,05,26,04,36,9.90
2017,05,26,04,37,9.90
2017,05,26,04,38,9.90
2017,05,26,04,39,9.90
2017,05,26,04,40,9.90
2017,05,26,04,41,9.90
2017,05,26,04,42,9.90
2017,05,26,04,43,9.90
2017,05,26,04,44,9.90
2017,05,26,04,45,9.90
2017,05,26,04,46,10.00
2017,05,26,04,47,10.00
2017,05,26,04,48,10.10
2017,05,26,04,49,10.20
2017,05,26,04,50,10.20
2017,05,26,04,51,10.30
2017,05,26,04,52,10.30
2017,05,26,04,53,10.40
2017,05,26,04,54,10.50
2017,05,26,04,55,10.50
2017,05,26,04,56,10.60
2017,05,26,04,57,10.70
2017,05,26,04,58,10.70
2017,05,26,04,59,10.80
2017,05,26,05,00,10.80
2017,05,26,05,01,10.90
2017,05,26,05,02,10.90
2017,05,26,05,03,11.00
2017,05,26,05,04,11.00
2017,05,26,05,05,11.00
2017,05,26,05,06,11.10
2017,05,26,05,07,11.10
2017,05,26,05,08,11.10
2017,05,26,05,09,11.20
2017,05,26,05,10,11.20
2017,05,26,05,11,11.20
2017,05,26,05,12,11.30
2017,05,26,05,13,11.30
2017,05,26,05,14,11.30
2017,05,26,05,15,11.40
2017,05,26,05,16,11.40
2017,05,26,05,17,11.50
2017,05,26,05,18,11.50
2017,05,26,05,19,11.50
2017,05,26,05,20,11.60
2017,05,26,05,21,11.60
2017,05,26,05,22,11.60
2017,05,26,05,23,11.60
2017,05,26,05,24,11.60
2017,05,26,05,25,11.60
2017,05,26,05,26,11.60
2017,05,26,05,27,11.60
2017,05,26,05,28,11.60
2017,05,26,05,29,11.60
2017,05,26,05,30,11.60
2017,05,26,05,31,11.60
2017,05,26,05,32,11.50
2017,05,26,05,33,11.50
2017,05,26,05,34,11.50
2017,05,26,05,35,11.40
2017,05,26,05,36,11.40
2017,05,26,05,37,11.40
2017,05,26,05,38,11.40
2017,05,26,05,39,11.30
2017,05,26,05,40,11.30
2017,05,26,05,41,11.30
2017,05,26,05,42,11.30
2017,05,26,05,43,11.20
2017,05,26,05,44,11.20
2017,05,26,05,45,11.20
2017,05,26,05,46,11.20
2017,05,26,05,47,11.20
2017,05,26,05,48,11.20
2017,05,26,05,49,11.20
2017,05,26,05,50,11.20
2017,05,26,05,51,11.20
2017,05,26,05,52,11.20
2017,05,26,05,53,11.20
2017,05,26,05,54,11.10
2017,05,26,05,55,11.10
2017,05,26,05,56,11.10
2017,05,26,05,57,11.10
2017,05,26,05,58,11.10
2017,05,26,05,59,11.10
2017,05,26,06,00,11.10
2017,05,26,06,01,11.10
2017,05,26,06,02,11.10
2017,05,26,06,03,11.20
2017,05,26,06,04,11.20
2017,05,26,06,05,11.20
2017,05,26,06,06,11.20
2017,05,26,06,07,11.30
2017,05,26,06,08,11.30
2017,05,26,06,09,11.30
2017,05,26,06,10,11.30
2017,05,26,06,11,11.30
2017,05,26,06,12,11.30
2017,05,26,06,13,11.40
2017,05,26,06,14,11.40
2017,05,26,06,15,11.40
2017,05,26,06,16,11.40
2017,05,26,06,17,11.40
2017,05,26,06,18,11.40
2017,05,26,06,19,11.40
2017,05,26,06,20,11.40
2017,05,26,06,21,11.50
2017,05,26,06,22,11.50
2017,05,26,06,23,11.50
2017,05,26,06,24,11.60
2017,05,26,06,25,11.60
2017,05,26,06,26,11.60
2017,05,26,06,27,11.60
2017,05,26,06,28,11.60
2017,05,26,06,29,11.60
2017,05,26,06,30,11.70
2017,05,26,06,31,11.70
2017,05,26,06,32,11.70
2017,05,26,06,33,11.70
2017,05,26,06,34,11.80
2017,05,26,06,35,11.80
2017,05,26,06,36,11.80
2017,05,26,06,37,11.80
2017,05,26,06,38,11.80
2017,05,26,06,39,11.80
2017,05,26,06,40,11.80
2017,05,26,06,41,11.80
2017,05,26,06,42,11.90
2017,05,26,06,43,11.90
2017,05,26,06,44,11.90
2017,05,26,06,45,11.90
2017,05,26,06,46,11.90
2017,05,26,06,47,11.90
2017,05,26,06,48,12.00
2017,05,26,06,49,12.00
2017,05,26,06,50,12.00
2017,05,26,06,51,12.00
2017,05,26,06,52,12.10
2017,05,26,06,53,12.10
2017,05,26,06,54,12.10
2017,05,26,06,55,12.10
2017,05,26,06,56,12.10
2017,05,26,06,57,12.10
2017,05,26,06,58,12.10
2017,05,26,06,59,12.10
2017,05,26,07,00,12.20
2017,05,26,07,01,12.20
2017,05,26,07,02,12.20
2017,05,26,07,03,12.20
2017,05,26,07,04,12.20
2017,05,26,07,05,12.20
2017,05,26,07,06,12.20
2017,05,26,07,07,12.20
2017,05,26,07,08,12.30
2017,05,26,07,09,12.30
2017,05,26,07,10,12.30
2017,05,26,07,11,12.30
2017,05,26,07,12,12.30
2017,05,26,07,13,12.30
2017,05,26,07,14,12.30
2017,05,26,07,15,12.40
2017,05,26,07,16,12.40
2017,05,26,07,17,12.40
2017,05,26,07,18,12.40
2017,05,26,07,19,12.50
2017,05,26,07,20,12.50
2017,05,26,07,21,12.50
2017,05,26,07,22,12.50
2017,05,26,07,23,12.50
2017,05,26,07,24,12.60
2017,05,26,07,25,12.60
2017,05,26,07,26,12.60
2017,05,26,07,27,12.70
2017,05,26,07,28,12.70
2017,05,26,07,29,12.70
2017,05,26,07,30,12.70
2017,05,26,07,31,12.80
2017,05,26,07,32,12.80
2017,05,26,07,33,12.80
2017,05,26,07,34,12.80
2017,05,26,07,35,12.80
2017,05,26,07,36,12.90
2017,05,26,07,37,12.90
2017,05,26,07,38,12.90
2017,05,26,07,39,13.00
2017,05,26,07,40,13.00
2017,05,26,07,41,13.10
2017,05,26,07,42,13.10
2017,05,26,07,43,13.10
2017,05,26,07,44,13.20
2017,05,26,07,45,13.20
2017,05,26,07,46,13.20
2017,05,26,07,47,13.30
2017,05,26,07,48,13.30
2017,05,26,07,49,13.30
2017,05,26,07,50,13.30
2017,05,26,07,51,13.30
2017,05,26,07,52,13.40
2017,05,26,07,53,13.40
2017,05,26,07,54,13.40
2017,05,26,07,55,13.50
2017,05,26,07,56,13.50
2017,05,26,07,57,13.50
2017,05,26,07,58,13.50
2017,05,26,07,59,13.60
2017,05,26,08,00,13.60
2017,05,26,08,01,13.60
2017,05,26,08,02,13.70
2017,05,26,08,03,13.70
2017,05,26,08,04,13.70
2017,05,26,08,05,13.70
2017,05,26,08,06,13.70
2017,05,26,08,07,13.70
2017,05,26,08,08,13.80
2017,05,26,08,09,13.80
2017,05,26,08,10,13.80
2017,05,26,08,11,13.80
2017,05,26,08,12,13.80
2017,05,26,08,13,13.80
2017,05,26,08,14,13.80
2017,05,26,08,15,13.80
2017,05,26,08,16,13.90
2017,05,26,08,17,13.90
2017,05,26,08,18,13.90
2017,05,26,08,19,13.90
2017,05,26,08,20,13.90
2017,05,26,08,21,13.90
2017,05,26,08,22,13.90
2017,05,26,08,23,13.90
2017,05,26,08,24,13.90
2017,05,26,08,25,14.00
2017,05,26,08,26,14.00
2017,05,26,08,27,14.00
2017,05,26,08,28,14.00
2017,05,26,08,29,14.10
2017,05,26,08,30,14.10
2017,05,26,08,31,14.10
2017,05,26,08,32,14.10
2017,05,26,08,33,14.20
2017,05,26,08,34,14.20
2017,05,26,08,35,14.30
2017,05,26,08,36,14.30
2017,05,26,08,37,14.30
2017,05,26,08,38,14.30
2017,05,26,08,39,14.40
2017,05,26,08,40,14.40
2017,05,26,08,41,14.50
2017,05,26,08,42,14.50
2017,05,26,08,43,14.50
2017,05,26,08,44,14.60
2017,05,26,08,45,14.60
2017,05,26,08,46,14.70
2017,05,26,08,47,14.70
2017,05,26,08,48,14.80
2017,05,26,08,49,14.80
2017,05,26,08,50,14.80
2017,05,26,08,51,14.90
2017,05,26,08,52,14.90
2017,05,26,08,53,14.90
2017,05,26,08,54,14.90
2017,05,26,08,55,15.00
2017,05,26,08,56,15.00
2017,05,26,08,57,15.10
2017,05,26,08,58,15.10
2017,05,26,08,59,15.20
2017,05,26,09,00,15.20
2017,05,26,09,01,15.20
2017,05,26,09,02,15.20
2017,05,26,09,03,15.30
2017,05,26,09,04,15.30
2017,05,26,09,05,15.30
2017,05,26,09,06,15.30
2017,05,26,09,07,15.30
2017,05,26,09,08,15.30
2017,05,26,09,09,15.30
2017,05,26,09,10,15.40
2017,05,26,09,11,15.40
2017,05,26,09,12,15.40
2017,05,26,09,13,15.40
2017,05,26,09,14,15.50
2017,05,26,09,15,15.50
2017,05,26,09,16,15.60
2017,05,26,09,17,15.60
2017,05,26,09,18,15.60
2017,05,26,09,19,15.70
2017,05,26,09,20,15.70
2017,05,26,09,21,15.80
2017,05,26,09,22,15.80
2017,05,26,09,23,15.90
2017,05,26,09,24,15.90
2017,05,26,09,25,15.90
2017,05,26,09,26,15.90
2017,05,26,09,27,15.90
2017,05,26,09,28,15.80
2017,05,26,09,29,15.80
2017,05,26,09,30,15.90
2017,05,26,09,31,15.90
2017,05,26,09,32,15.90
2017,05,26,09,33,15.90
2017,05,26,09,34,15.90
2017,05,26,09,35,16.00
2017,05,26,09,36,16.00
2017,05,26,09,37,16.10
2017,05,26,09,38,16.10
2017,05,26,09,39,16.20
2017,05,26,09,40,16.20
2017,05,26,09,41,16.20
2017,05,26,09,42,16.20
2017,05,26,09,43,16.20
2017,05,26,09,44,16.20
2017,05,26,09,45,16.20
2017,05,26,09,46,16.20
2017,05,26,09,47,16.30
2017,05,26,09,48,16.30
2017,05,26,09,49,16.30
2017,05,26,09,50,16.30
2017,05,26,09,51,16.30
2017,05,26,09,52,16.30
2017,05,26,09,53,16.30
2017,05,26,09,54,16.30
2017,05,26,09,55,16.30
2017,05,26,09,56,16.40
2017,05,26,09,57,16.40
2017,05,26,09,58,16.40
2017,05,26,09,59,16.40
2017,05,26,10,00,16.40
2017,05,26,10,01,16.40
2017,05,26,10,02,16.50
2017,05,26,10,03,16.50
2017,05,26,10,04,16.60
2017,05,26,10,05,16.60
2017,05,26,10,06,16.60
2017,05,26,10,07,16.60
2017,05,26,10,08,16.60
2017,05,26,10,09,16.60
2017,05,26,10,10,16.70
2017,05,26,10,11,16.70
2017,05,26,10,12,16.80
2017,05,26,10,13,16.80
2017,05,26,10,14,16.90
2017,05,26,10,15,16.90
2017,05,26,10,16,17.00
2017,05,26,10,17,17.10
2017,05,26,10,18,17.10
2017,05,26,10,19,17.10
2017,05,26,10,20,17.10
2017,05,26,10,21,17.10
2017,05,26,10,22,17.10
2017,05,26,10,23,17.20
2017,05,26,10,24,17.20
2017,05,26,10,25,17.20
2017,05,26,10,26,17.20
2017,05,26,10,27,17.20
2017,05,26,10,28,17.20
2017,05,26,10,29,17.20
2017,05,26,10,30,17.20
2017,05,26,10,31,17.20
2017,05,26,10,32,17.20
2017,05,26,10,33,17.20
2017,05,26,10,34,17.10
2017,05,26,10,35,17.10
2017,05,26,10,36,17.10
2017,05,26,10,37,17.20
2017,05,26,10,38,17.20
2017,05,26,10,39,17.20
2017,05,26,10,40,17.20
2017,05,26,10,41,17.20
2017,05,26,10,42,17.20
2017,05,26,10,43,17.30
2017,05,26,10,44,17.30
2017,05,26,10,45,17.30
2017,05,26,10,46,17.40
2017,05,26,10,47,17.40
2017,05,26,10,48,17.50
2017,05,26,10,49,17.60
2017,05,26,10,50,17.60
2017,05,26,10,51,17.70
2017,05,26,10,52,17.80
2017,05,26,10,53,17.80
2017,05,26,10,54,17.90
2017,05,26,10,55,17.90
2017,05,26,10,56,18.00
2017,05,26,10,57,18.00
2017,05,26,10,58,18.00
2017,05,26,10,59,18.10
2017,05,26,11,00,18.10
2017,05,26,11,01,18.10
2017,05,26,11,02,18.00
2017,05,26,11,03,18.00
2017,05,26,11,04,18.00
2017,05,26,11,05,18.00
2017,05,26,11,06,18.00
2017,05,26,11,07,18.00
2017,05,26,11,08,18.00
2017,05,26,11,09,18.00
2017,05,26,11,10,18.00
2017,05,26,11,11,18.00
2017,05,26,11,12,17.90
2017,05,26,11,13,17.90
2017,05,26,11,14,18.00
2017,05,26,11,15,18.00
2017,05,26,11,16,18.00
2017,05,26,11,17,17.90
2017,05,26,11,18,18.00
2017,05,26,11,19,18.00
2017,05,26,11,20,17.90
2017,05,26,11,21,17.90
2017,05,26,11,22,17.80
2017,05,26,11,23,17.80
2017,05,26,11,24,17.80
2017,05,26,11,25,17.80
2017,05,26,11,26,17.80
2017,05,26,11,27,17.80
2017,05,26,11,28,17.80
2017,05,26,11,29,17.80
2017,05,26,11,30,17.80
2017,05,26,11,31,17.80
2017,05,26,11,32,17.80
2017,05,26,11,33,17.90
2017,05,26,11,34,17.80
2017,05,26,11,35,17.80
2017,05,26,11,36,17.80
2017,05,26,11,37,17.80
2017,05,26,11,38,17.80
2017,05,26,11,39,17.80
2017,05,26,11,40,17.80
2017,05,26,11,41,17.90
2017,05,26,11,42,17.90
2017,05,26,11,43,17.90
2017,05,26,11,44,17.80
2017,05,26,11,45,17.80
2017,05,26,11,46,17.90
2017,05,26,11,47,18.00
2017,05,26,11,48,18.00
2017,05,26,11,49,18.00
2017,05,26,11,50,18.00
2017,05,26,11,51,18.00
2017,05,26,11,52,18.10
2017,05,26,11,53,18.00
2017,05,26,11,54,18.00
2017,05,26,11,55,18.00
2017,05,26,11,56,18.10
2017,05,26,11,57,18.10
2017,05,26,11,58,18.10
2017,05,26,11,59,18.20
2017,05,26,12,00,18.20
2017,05,26,12,01,18.20
2017,05,26,12,02,18.30
2017,05,26,12,03,18.30
2017,05,26,12,04,18.30
2017,05,26,12,05,18.40
2017,05,26,12,06,18.30
2017,05,26,12,07,18.40
2017,05,26,12,08,18.50
2017,05,26,12,09,18.50
2017,05,26,12,10,18.60
2017,05,26,12,11,18.70
2017,05,26,12,12,18.70
2017,05,26,12,13,18.80
2017,05,26,12,14,18.80
2017,05,26,12,15,18.80
2017,05,26,12,16,18.80
2017,05,26,12,17,18.90
2017,05,26,12,18,19.00
2017,05,26,12,19,19.10
2017,05,26,12,20,19.20
2017,05,26,12,21,19.30
2017,05,26,12,22,19.40
2017,05,26,12,23,19.40
2017,05,26,12,24,19.50
2017,05,26,12,25,19.60
2017,05,26,12,26,19.60
2017,05,26,12,27,19.60
2017,05,26,12,28,19.70
2017,05,26,12,29,19.70
2017,05,26,12,30,19.70
2017,05,26,12,31,19.70
2017,05,26,12,32,19.70
2017,05,26,12,33,19.70
2017,05,26,12,34,19.80
2017,05,26,12,35,19.80
2017,05,26,12,36,19.80
2017,05,26,12,37,19.90
2017,05,26,12,38,19.90
2017,05,26,12,39,19.90
2017,05,26,12,40,20.00
2017,05,26,12,41,20.10
2017,05,26,12,42,20.10
2017,05,26,12,43,20.10
2017,05,26,12,44,20.10
2017,05,26,12,45,20.00
2017,05,26,12,46,20.00
2017,05,26,12,47,20.00
2017,05,26,12,48,20.10
2017,05,26,12,49,20.20
2017,05,26,12,50,20.20
2017,05,26,12,51,20.20
2017,05,26,12,52,20.30
2017,05,26,12,53,20.30
2017,05,26,12,54,20.20
2017,05,26,12,55,20.20
2017,05,26,12,56,20.20
2017,05,26,12,57,20.20
2017,05,26,12,58,20.20
2017,05,26,12,59,20.20
2017,05,26,13,00,20.20
2017,05,26,13,01,20.20
2017,05,26,13,02,20.20
2017,05,26,13,03,20.10
2017,05,26,13,04,20.10
2017,05,26,13,05,20.10
2017,05,26,13,06,20.20
2017,05,26,13,07,20.20
2017,05,26,13,08,20.30
2017,05,26,13,09,20.40
2017,05,26,13,10,20.40
2017,05,26,13,11,20.50
2017,05,26,13,12,20.60
2017,05,26,13,13,20.60
2017,05,26,13,14,20.70
2017,05,26,13,15,20.70
2017,05,26,13,16,20.70
2017,05,26,13,17,20.70
2017,05,26,13,18,20.70
2017,05,26,13,19,20.70
2017,05,26,13,20,20.70
2017,05,26,13,21,20.70
2017,05,26,13,22,20.70
2017,05,26,13,23,20.60
2017,05,26,13,24,20.60
2017,05,26,13,25,20.60
2017,05,26,13,26,20.60
2017,05,26,13,27,20.60
2017,05,26,13,28,20.60
2017,05,26,13,29,20.70
2017,05,26,13,30,20.70
2017,05,26,13,31,20.70
2017,05,26,13,32,20.70
2017,05,26,13,33,20.80
2017,05,26,13,34,20.90
2017,05,26,13,35,21.00
2017,05,26,13,36,21.00
2017,05,26,13,37,21.00
2017,05,26,13,38,21.00
2017,05,26,13,39,20.90
2017,05,26,13,40,20.90
2017,05,26,13,41,21.00
2017,05,26,13,42,21.00
2017,05,26,13,43,21.10
2017,05,26,13,44,21.20
2017,05,26,13,45,21.20
2017,05,26,13,46,21.20
2017,05,26,13,47,21.10
2017,05,26,13,48,21.20
2017,05,26,13,49,21.20
2017,05,26,13,50,21.20
2017,05,26,13,51,21.20
2017,05,26,13,52,21.30
2017,05,26,13,53,21.40
2017,05,26,13,54,21.40
2017,05,26,13,55,21.50
2017,05,26,13,56,21.60
2017,05,26,13,57,21.60
2017,05,26,13,58,21.60
2017,05,26,13,59,21.70
2017,05,26,14,00,21.70
2017,05,26,14,01,21.80
2017,05,26,14,02,21.80
2017,05,26,14,03,21.80
2017,05,26,14,04,21.80
2017,05,26,14,05,21.90
2017,05,26,14,06,21.90
2017,05,26,14,07,22.00
2017,05,26,14,08,22.10
2017,05,26,14,09,22.20
2017,05,26,14,10,22.30
2017,05,26,14,11,22.30
2017,05,26,14,12,22.30
2017,05,26,14,13,22.30
2017,05,26,14,14,22.30
2017,05,26,14,15,22.20
2017,05,26,14,16,22.20
2017,05,26,14,17,22.20
2017,05,26,14,18,22.20
2017,05,26,14,19,22.20
2017,05,26,14,20,22.20
2017,05,26,14,21,22.20
2017,05,26,14,22,22.10
2017,05,26,14,23,22.10
2017,05,26,14,24,22.00
2017,05,26,14,25,22.00
2017,05,26,14,26,21.90
2017,05,26,14,27,21.90
2017,05,26,14,28,21.90
2017,05,26,14,29,21.80
2017,05,26,14,30,21.80
2017,05,26,14,31,21.80
2017,05,26,14,32,21.80
2017,05,26,14,33,21.80
2017,05,26,14,34,21.80
2017,05,26,14,35,21.80
2017,05,26,14,36,21.90
2017,05,26,14,37,22.00
2017,05,26,14,38,22.00
2017,05,26,14,39,22.10
2017,05,26,14,40,22.10
2017,05,26,14,41,22.10
2017,05,26,14,42,22.10
2017,05,26,14,43,22.10
2017,05,26,14,44,22.20
2017,05,26,14,45,22.20
2017,05,26,14,46,22.30
2017,05,26,14,47,22.30
2017,05,26,14,48,22.30
2017,05,26,14,49,22.40
2017,05,26,14,50,22.50
2017,05,26,14,51,22.50
2017,05,26,14,52,22.60
2017,05,26,14,53,22.70
2017,05,26,14,54,22.70
2017,05,26,14,55,22.80
2017,05,26,14,56,22.80
2017,05,26,14,57,22.70
2017,05,26,14,58,22.70
2017,05,26,14,59,22.70
2017,05,26,15,00,22.70
2017,05,26,15,01,22.70
2017,05,26,15,02,22.80
2017,05,26,15,03,22.90
2017,05,26,15,04,23.00
2017,05,26,15,05,23.00
2017,05,26,15,06,23.10
2017,05,26,15,07,23.10
2017,05,26,15,08,23.20
2017,05,26,15,09,23.20
2017,05,26,15,10,23.20
2017,05,26,15,11,23.30
2017,05,26,15,12,23.30
2017,05,26,15,13,23.40
2017,05,26,15,14,23.40
2017,05,26,15,15,23.40
2017,05,26,15,16,23.40
2017,05,26,15,17,23.40
2017,05,26,15,18,23.30
2017,05,26,15,19,23.30
2017,05,26,15,20,23.20
2017,05,26,15,21,23.10
2017,05,26,15,22,23.00
2017,05,26,15,23,22.90
2017,05,26,15,24,22.90
2017,05,26,15,25,22.80
2017,05,26,15,26,22.80
2017,05,26,15,27,22.70
2017,05,26,15,28,22.70
2017,05,26,15,29,22.70
2017,05,26,15,30,22.70
2017,05,26,15,31,22.60
2017,05,26,15,32,22.60
2017,05,26,15,33,22.60
2017,05,26,15,34,22.50
2017,05,26,15,35,22.50
2017,05,26,15,36,22.40
2017,05,26,15,37,22.40
2017,05,26,15,38,22.40
2017,05,26,15,39,22.50
2017,05,26,15,40,22.60
2017,05,26,15,41,22.60
2017,05,26,15,42,22.70
2017,05,26,15,43,22.70
2017,05,26,15,44,22.70
2017,05,26,15,45,22.70
2017,05,26,15,46,22.70
2017,05,26,15,47,22.70
2017,05,26,15,48,22.70
2017,05,26,15,49,22.80
2017,05,26,15,50,22.80
2017,05,26,15,51,22.80
2017,05,26,15,52,22.90
2017,05,26,15,53,22.90
2017,05,26,15,54,22.80
2017,05,26,15,55,22.80
2017,05,26,15,56,22.80
2017,05,26,15,57,22.80
2017,05,26,15,58,22.90
2017,05,26,15,59,22.90
2017,05,26,16,00,23.00
2017,05,26,16,01,23.00
2017,05,26,16,02,23.10
2017,05,26,16,03,23.10
2017,05,26,16,04,23.00
2017,05,26,16,05,23.10
2017,05,26,16,06,23.10
2017,05,26,16,07,23.20
2017,05,26,16,08,23.20
2017,05,26,16,09,23.20
2017,05,26,16,10,23.20
2017,05,26,16,11,23.20
2017,05,26,16,12,23.10
2017,05,26,16,13,23.10
2017,05,26,16,14,23.10
2017,05,26,16,15,23.20
2017,05,26,16,16,23.20
2017,05,26,16,17,23.20
2017,05,26,16,18,23.20
2017,05,26,16,19,23.10
2017,05,26,16,20,23.10
2017,05,26,16,21,23.20
2017,05,26,16,22,23.20
2017,05,26,16,23,23.20
2017,05,26,16,24,23.30
2017,05,26,16,25,23.30
2017,05,26,16,26,23.40
2017,05,26,16,27,23.40
2017,05,26,16,28,23.50
2017,05,26,16,29,23.60
2017,05,26,16,30,23.60
2017,05,26,16,31,23.60
2017,05,26,16,32,23.70
2017,05,26,16,33,23.70
2017,05,26,16,34,23.70
2017,05,26,16,35,23.70
2017,05,26,16,36,23.70
2017,05,26,16,37,23.70
2017,05,26,16,38,23.70
2017,05,26,16,39,23.70
2017,05,26,16,40,23.80
2017,05,26,16,41,23.70
2017,05,26,16,42,23.70
2017,05,26,16,43,23.70
2017,05,26,16,44,23.70
2017,05,26,16,45,23.80
2017,05,26,16,46,23.80
2017,05,26,16,47,23.80
2017,05,26,16,48,23.80
2017,05,26,16,49,23.80
2017,05,26,16,50,23.80
2017,05,26,16,51,23.90
2017,05,26,16,52,23.90
2017,05,26,16,53,23.90
2017,05,26,16,54,23.90
2017,05,26,16,55,24.00
2017,05,26,16,56,24.10
2017,05,26,16,57,24.10
2017,05,26,16,58,24.20
2017,05,26,16,59,24.30
2017,05,26,17,00,24.30
2017,05,26,17,01,24.40
2017,05,26,17,02,24.40
2017,05,26,17,03,24.50
2017,05,26,17,04,24.50
2017,05,26,17,05,24.60
2017,05,26,17,06,24.60
2017,05,26,17,07,24.60
2017,05,26,17,08,24.60
2017,05,26,17,09,24.60
2017,05,26,17,10,24.50
2017,05,26,17,11,24.50
2017,05,26,17,12,24.40
2017,05,26,17,13,24.40
2017,05,26,17,14,24.40
2017,05,26,17,15,24.30
2017,05,26,17,16,24.30
2017,05,26,17,17,24.30
2017,05,26,17,18,24.20
2017,05,26,17,19,24.20